TimeMDT,TemperatureF,Dew PointF,Humidity,Sea Level PressureIn,VisibilityMPH,Wind Direction,Wind SpeedMPH,Gust SpeedMPH,PrecipitationIn,Events,Conditions,WindDirDegrees,DateUTC
12:56 AM,25.0,18.0,75,30.25,-9999.0,Calm,Calm,-,N/A,,Unknown,0,2012-10-19 06:56:00
1:56 AM,23.0,18.0,81,30.25,-9999.0,Calm,Calm,-,N/A,,Unknown,0,2012-10-19 07:56:00
2:56 AM,21.9,18.0,85,30.25,-9999.0,NW,3.5,-,N/A,,Unknown,310,2012-10-19 08:56:00
3:56 AM,21.9,17.1,82,30.20,-9999.0,WNW,3.5,-,N/A,,Unknown,300,2012-10-19 09:56:00
4:56 AM,21.9,18.0,85,30.20,-9999.0,Calm,Calm,-,N/A,,Unknown,0,2012-10-19 10:56:00
5:56 AM,21.9,18.0,85,30.20,-9999.0,Calm,Calm,-,N/A,,Unknown,0,2012-10-19 11:56:00
6:56 AM,21.9,18.0,85,30.21,-9999.0,Calm,Calm,-,N/A,,Unknown,0,2012-10-19 12:56:00
7:56 AM,21.9,18.0,85,30.24,-9999.0,NW,3.5,-,N/A,,Unknown,310,2012-10-19 13:56:00
8:56 AM,28.0,23.0,81,30.21,-9999.0,Calm,Calm,-,N/A,,Unknown,0,2012-10-19 14:56:00
9:56 AM,36.0,25.0,64,30.17,-9999.0,Calm,Calm,-,N/A,,Unknown,0,2012-10-19 15:56:00
10:56 AM,39.0,24.1,55,30.14,-9999.0,Variable,4.6,-,N/A,,Unknown,0,2012-10-19 16:56:00
11:56 AM,44.1,21.0,40,30.09,-9999.0,West,8.1,-,N/A,,Unknown,260,2012-10-19 17:56:00
12:56 PM,44.1,18.0,35,30.08,-9999.0,Variable,5.8,-,N/A,,Unknown,0,2012-10-19 18:56:00
1:56 PM,44.1,18.0,35,30.08,-9999.0,SW,8.1,-,N/A,,Unknown,220,2012-10-19 19:56:00
2:56 PM,43.0,18.0,37,30.08,-9999.0,Variable,6.9,-,N/A,,Unknown,0,2012-10-19 20:56:00
3:56 PM,46.0,19.9,35,30.05,-9999.0,WSW,9.2,-,N/A,,Unknown,250,2012-10-19 21:56:00
4:56 PM,44.1,19.0,37,30.06,-9999.0,Variable,5.8,-,N/A,,Unknown,0,2012-10-19 22:56:00
5:56 PM,41.0,23.0,49,30.06,-9999.0,Variable,6.9,19.6,N/A,,Unknown,0,2012-10-19 23:56:00
6:56 PM,41.0,21.9,47,30.04,-9999.0,Variable,5.8,-,0.01,,Unknown,0,2012-10-20 00:56:00
7:56 PM,39.9,24.1,53,30.03,-9999.0,Calm,Calm,-,N/A,,Unknown,0,2012-10-20 01:56:00
8:56 PM,41.0,27.0,57,29.98,-9999.0,Variable,3.5,-,N/A,,Unknown,0,2012-10-20 02:56:00
9:56 PM,39.9,27.0,60,29.92,-9999.0,Calm,Calm,-,N/A,,Unknown,0,2012-10-20 03:56:00
10:56 PM,32.0,25.0,75,29.93,-9999.0,Calm,Calm,-,N/A,,Unknown,0,2012-10-20 04:56:00
11:56 PM,30.0,24.1,79,29.90,-9999.0,Calm,Calm,-,N/A,,Unknown,0,2012-10-20 05:56:00